Tracking 32140 objects as of 13-Nov-2025
HD Live streaming from Space Station
objects crossing your sky now

COSMOS 1814 DEB *

Track COSMOS 1814 DEB * now!
10-day predictions


NORAD ID: 18257
Int'l Code: 1987-006C
Perigee: 664.5 km
Apogee: 671.1 km
Inclination: 74.0 °
Period: 98.0 minutes
Semi major axis: 7038 km
RCS: 0.0165 m2 (small)
Launch date: January 21, 1987
Source: Commonwealth of Independent States (former USSR) (CIS)
Launch site: PLESETSK MISSILE AND SPACE COMPLEX (PKMTR)

Note: This is SATELLITE DEBRIS
Your satellite tracking list
Your tracking list is empty




NASA's NSSDC Master Catalog

Two Line Element Set (TLE):
1 18257U 87006C   25317.57973120  .00010178  00000-0  16946-2 0  9991
2 18257  74.0365  24.1485 0004655 213.2705 146.8174 14.70124682123422
Source of the keplerian elements: AFSPC